CW4185 Weather Reports


time (UTC)temp
F
wind
direction
speed
knots
gust
knots
rain 1hr
in
rain 24hr
in
rain mn
in
humidity
%
barometer
mb
20260508150649 72 60 4.3 7.0 0.00 0.00 0.00 87 1013.5
20260508150151 72 73 4.3 9.6 0.00 0.00 0.00 88 1013.5
20260508145647 72 84 4.3 8.7 0.00 0.00 0.00 87 1013.9
20260508145149 72 55 4.3 7.8 0.00 0.00 0.00 86 1013.9
20260508144646 72 70 4.3 6.1 0.00 0.00 0.00 86 1013.9
20260508144146 72 65 6.1 9.6 0.00 0.00 0.00 85 1013.5
20260508143647 73 69 4.3 10.4 0.00 0.00 0.00 84 1013.5
20260508143147 72 64 6.1 11.3 0.00 0.00 0.00 85 1013.5
20260508142648 72 77 7.8 12.2 0.00 0.00 0.00 86 1013.5
20260508142148 72 61 7.8 7.8 0.00 0.00 0.00 85 1013.2
20260508141649 72 83 4.3 9.6 0.00 0.00 0.00 84 1013.5
20260508141149 72 63 8.7 9.6 0.00 0.00 0.00 85 1013.5
20260508140649 71 62 7.8 11.3 0.00 0.00 0.00 86 1013.5
20260508140150 71 78 5.2 6.1 0.00 0.00 0.00 86 1013.9
20260508135648 71 64 7.8 11.3 0.00 0.00 0.00 86 1013.5
20260508135147 71 62 6.1 7.8 0.00 0.00 0.00 86 1013.5
20260508134649 70 77 4.3 9.6 0.00 0.00 0.00 87 1013.5
20260508134149 70 82 4.3 12.2 0.00 0.00 0.00 87 1013.9
20260508133648 70 70 4.3 7.8 0.00 0.00 0.00 86 1013.9
20260508133149 70 65 5.2 10.4 0.00 0.00 0.00 86 1013.9
20260508132648 70 60 5.2 9.6 0.00 0.00 0.00 86 1013.9
20260508132149 70 37 6.1 7.0 0.00 0.00 0.00 87 1013.9
20260508131648 70 44 3.5 8.7 0.00 0.00 0.00 87 1013.9
20260508131148 70 49 5.2 10.4 0.00 0.00 0.00 87 1013.9
20260508130647 70 55 8.7 10.4 0.00 0.00 0.00 87 1013.9
20260508130151 70 40 3.5 5.2 0.00 0.00 0.00 88 1014.2
20260508125647 70 50 8.7 11.3 0.00 0.00 0.00 88 1014.2
20260508125148 70 24 6.1 10.4 0.00 0.00 0.00 88 1014.2
20260508124649 70 4 4.3 7.0 0.00 0.00 0.00 88 1014.6
20260508124146 70 40 7.8 12.2 0.00 0.00 0.00 87 1014.6
20260508123651 70 39 5.2 7.8 0.00 0.00 0.00 87 1014.6
20260508123149 70 348 3.5 5.2 0.00 0.00 0.00 87 1014.6
20260508122652 70 85 2.6 7.0 0.00 0.00 0.00 87 1014.2
20260508122149 70 41 5.2 8.7 0.00 0.00 0.00 88 1014.2
20260508121649 70 18 4.3 6.1 0.00 0.00 0.00 88 1014.2
20260508121149 70 54 6.1 7.8 0.00 0.00 0.00 88 1014.2
20260508120648 70 33 3.5 8.7 0.00 0.00 0.00 88 1014.2
20260508120149 70 29 0.0 10.4 0.00 0.00 0.00 87 1013.9
20260508115646 70 41 2.6 4.3 0.00 0.00 0.00 88 1013.2
20260508115147 70 27 2.6 9.6 0.00 0.00 0.00 88 1013.2
20260508114650 70 27 4.3 8.7 0.00 0.00 0.00 88 1013.5
20260508114148 70 57 3.5 7.0 0.00 0.00 0.00 88 1013.5
20260508113650 70 102 3.5 7.8 0.00 0.00 0.00 88 1013.5
20260508113149 70 67 7.0 7.8 0.00 0.00 0.00 89 1013.5
20260508112648 70 8 1.7 6.1 0.00 0.00 0.00 88 1013.9
20260508112149 70 52 0.9 5.2 0.00 0.00 0.00 89 1014.2
20260508111651 70 61 3.5 6.1 0.00 0.00 0.00 89 1014.2
20260508111150 70 0 2.6 5.2 0.00 0.00 0.00 89 1014.2
20260508110649 70 62 4.3 7.0 0.00 0.00 0.00 89 1014.6
20260508110149 70 22 3.5 6.1 0.00 0.00 0.00 89 1014.2
20260508105647 69 51 2.6 6.1 0.00 0.00 0.00 89 1013.9
20260508105147 70 59 3.5 8.7 0.00 0.00 0.00 89 1013.9
20260508104647 70 72 1.7 4.3 0.00 0.00 0.00 89 1013.9
20260508104150 70 30 1.7 6.1 0.00 0.00 0.00 89 1013.9
20260508103648 69 67 4.3 5.2 0.00 0.00 0.00 89 1013.5
20260508103148 69 72 5.2 6.1 0.00 0.00 0.00 89 1013.5
20260508102650 69 357 1.7 6.1 0.00 0.00 0.00 89 1013.5
20260508102150 69 67 4.3 7.0 0.00 0.00 0.00 89 1013.5
20260508101650 69 52 5.2 7.8 0.00 0.00 0.00 90 1013.2
20260508101149 69 68 7.8 9.6 0.00 0.00 0.00 90 1012.9
20260508100646 69 93 2.6 5.2 0.00 0.00 0.00 90 1012.9
20260508100150 70 59 5.2 6.1 0.00 0.00 0.00 90 1012.9
20260508095648 70 70 4.3 8.7 0.00 0.00 0.00 90 1012.9
20260508095149 70 47 2.6 7.0 0.00 0.00 0.00 90 1012.9
20260508094646 70 56 4.3 7.8 0.00 0.00 0.00 90 1012.9
20260508094151 70 69 3.5 8.7 0.00 0.00 0.00 90 1012.9
20260508093649 70 50 6.1 7.0 0.00 0.00 0.00 90 1012.9
20260508093151 70 66 4.3 6.1 0.00 0.00 0.00 89 1013.2
20260508092651 70 39 4.3 5.2 0.00 0.00 0.00 90 1012.9
20260508092149 70 0 1.7 7.8 0.00 0.00 0.00 90 1012.9
20260508091650 70 41 2.6 7.8 0.00 0.00 0.00 90 1012.9
20260508091149 71 46 3.5 5.2 0.00 0.00 0.00 89 1012.9
20260508090650 71 53 3.5 6.1 0.00 0.00 0.00 90 1012.5
20260508090149 71 58 6.1 7.8 0.00 0.00 0.00 90 1012.9
20260508085647 71 31 2.6 7.0 0.00 0.00 0.00 90 1012.9
20260508085149 71 57 4.3 7.8 0.00 0.00 0.00 89 1012.9
20260508084649 71 17 6.1 7.8 0.00 0.00 0.00 89 1012.9
20260508084148 71 347 1.7 4.3 0.00 0.00 0.00 89 1012.9
20260508083649 71 43 4.3 7.0 0.00 0.00 0.00 88 1012.5
20260508083147 72 44 3.5 5.2 0.00 0.00 0.00 88 1012.9
20260508082647 71 39 2.6 5.2 0.00 0.00 0.00 89 1012.9
20260508082149 71 50 1.7 5.2 0.00 0.00 0.00 89 1012.9
20260508081650 72 46 2.6 6.1 0.00 0.00 0.00 88 1012.5
20260508081146 72 63 3.5 4.3 0.00 0.00 0.00 88 1012.9
20260508080646 72 65 2.6 4.3 0.00 0.00 0.00 89 1012.9
20260508080147 72 50 2.6 4.3 0.00 0.00 0.00 88 1012.9
20260508075648 72 80 2.6 3.5 0.00 0.00 0.00 88 1012.9
20260508075149 72 58 2.6 6.1 0.00 0.00 0.00 88 1013.2
20260508074646 72 47 4.3 5.2 0.00 0.00 0.00 88 1013.2
20260508074147 72 37 1.7 3.5 0.00 0.00 0.00 88 1013.2
20260508073648 72 7 2.6 7.0 0.00 0.00 0.00 88 1012.9
20260508073151 72 39 3.5 5.2 0.00 0.00 0.00 89 1012.9
20260508072646 72 64 3.5 6.1 0.00 0.00 0.00 89 1012.9
20260508072147 72 74 2.6 5.2 0.00 0.00 0.00 89 1012.5
20260508071646 72 61 1.7 3.5 0.00 0.00 0.00 88 1012.5
20260508071147 72 36 1.7 5.2 0.00 0.00 0.00 88 1012.9
20260508070646 72 44 1.7 4.3 0.00 0.00 0.00 88 1012.9
20260508070148 73 51 2.6 5.2 0.00 0.00 0.00 88 1012.9
20260508065646 72 37 1.7 5.2 0.00 0.00 0.00 88 1012.9
20260508065149 72 38 0.9 3.5 0.00 0.00 0.00 88 1012.9
20260508064650 72 10 2.6 5.2 0.00 0.00 0.00 88 1013.2
20260508064151 73 358 2.6 3.5 0.00 0.00 0.00 87 1013.2
20260508063649 72 35 0.0 3.5 0.00 0.00 0.00 88 1012.9
20260508063150 72 29 1.7 2.6 0.00 0.00 0.00 88 1013.2
20260508062646 72 67 3.5 3.5 0.00 0.00 0.00 88 1013.2
20260508062150 73 25 1.7 3.5 0.00 0.00 0.00 87 1013.2
20260508061646 72 24 0.9 3.5 0.00 0.00 0.00 88 1013.5
20260508061150 72 69 1.7 3.5 0.00 0.00 0.00 88 1013.2
20260508060649 72 64 2.6 3.5 0.00 0.00 0.00 88 1013.5
20260508060148 72 48 1.7 4.3 0.00 0.00 0.00 88 1013.2
20260508055646 72 22 1.7 4.3 0.00 0.00 0.00 88 1013.5
20260508055147 72 54 2.6 2.6 0.00 0.00 0.00 88 1013.5
20260508054648 73 22 3.5 4.3 0.00 0.00 0.00 87 1013.5
20260508054146 72 57 2.6 5.2 0.00 0.00 0.00 88 1013.5
20260508053650 72 26 2.6 4.3 0.00 0.00 0.00 88 1013.9
20260508053150 72 51 4.3 6.1 0.00 0.00 0.00 88 1013.5
20260508052648 72 43 4.3 7.0 0.00 0.00 0.00 88 1013.5
20260508052149 72 45 3.5 7.0 0.00 0.00 0.00 88 1013.5
20260508051647 72 71 5.2 6.1 0.00 0.00 0.00 88 1013.9
20260508051150 73 45 1.7 4.3 0.00 0.00 0.00 87 1013.9
20260508050649 73 34 0.9 2.6 0.00 0.00 0.00 87 1013.9
20260508050149 73 32 4.3 4.3 0.00 0.00 0.00 88 1013.9
20260508045647 72 66 1.7 4.3 0.00 0.00 0.02 88 1013.9
20260508044719 73 40 1.7 5.2 0.00 0.00 0.02 88 1013.9
20260508044147 72 47 2.6 4.3 0.00 0.00 0.02 89 1013.9
20260508043647 72 59 4.3 6.1 0.00 0.00 0.02 88 1014.2
20260508043149 73 39 2.6 5.2 0.00 0.00 0.02 87 1014.2
20260508042647 73 51 2.6 4.3 0.00 0.00 0.02 88 1014.2
20260508042147 73 62 2.6 7.8 0.00 0.00 0.02 88 1014.2
20260508041647 73 358 2.6 7.8 0.00 0.00 0.02 88 1014.2
20260508041146 73 28 2.6 6.1 0.00 0.00 0.02 87 1014.2
20260508040650 73 359 3.5 6.1 0.00 0.00 0.02 87 1014.2
20260508040148 73 358 3.5 5.2 0.00 0.00 0.02 88 1014.2
20260508035646 73 56 5.2 8.7 0.00 0.00 0.02 87 1014.2
20260508035147 73 30 5.2 7.0 0.00 0.00 0.02 87 1014.6
20260508034648 73 45 3.5 7.8 0.00 0.00 0.02 87 1014.2
20260508034146 73 20 2.6 8.7 0.00 0.00 0.02 87 1014.6
20260508033648 74 3 1.7 4.3 0.00 0.00 0.02 87 1014.6
20260508033152 74 7 2.6 4.3 0.00 0.00 0.02 86 1014.6
20260508032646 74 52 2.6 6.1 0.00 0.00 0.02 85 1014.2
20260508032148 74 19 4.3 7.8 0.00 0.00 0.02 85 1014.2
20260508031646 74 42 4.3 8.7 0.00 0.00 0.02 85 1014.2
20260508031147 74 17 3.5 7.8 0.00 0.00 0.02 84 1014.2
20260508030647 75 353 4.3 7.8 0.00 0.00 0.02 83 1014.2
20260508030147 75 0 2.6 5.2 0.00 0.00 0.02 83 1014.2
20260508025648 75 24 3.5 7.8 0.00 0.00 0.02 83 1013.9
20260508025150 75 33 2.6 7.8 0.00 0.00 0.02 83 1013.9
20260508024646 75 26 1.7 4.3 0.00 0.00 0.02 83 1013.9
20260508024147 75 29 4.3 7.0 0.00 0.00 0.02 83 1013.9
20260508023647 75 38 4.3 7.8 0.00 0.00 0.02 83 1013.9
20260508023148 76 33 6.1 7.8 0.00 0.00 0.02 83 1014.2
20260508022331 76 5 1.7 6.1 0.00 0.00 0.02 83 1013.9
20260508021646 76 35 5.2 6.1 0.00 0.00 0.02 83 1013.9
20260508021146 76 19 4.3 7.0 0.00 0.00 0.02 82 1013.5
20260508020647 76 306 0.0 4.3 0.00 0.00 0.02 82 1013.9
20260508020148 76 16 1.7 5.2 0.00 0.00 0.02 81 1013.5
20260508015646 76 338 2.6 5.2 0.00 0.00 0.02 82 1013.9
20260508015146 76 28 2.6 7.0 0.00 0.00 0.02 82 1013.5
20260508014646 76 31 2.6 5.2 0.00 0.00 0.02 82 1013.2
20260508014147 76 347 2.6 4.3 0.00 0.00 0.02 82 1013.2
20260508013648 76 23 5.2 6.1 0.00 0.00 0.02 82 1013.2
20260508013147 76 35 2.6 4.3 0.00 0.00 0.02 82 1013.5
20260508012647 76 50 4.3 6.1 0.00 0.00 0.02 83 1013.5
20260508012146 76 2 2.6 3.5 0.00 0.00 0.02 84 1013.2
20260508011647 76 36 5.2 6.1 0.00 0.00 0.02 84 1013.2
20260508011147 76 38 3.5 7.0 0.00 0.00 0.02 84 1013.2
20260508010650 76 52 5.2 6.1 0.00 0.00 0.02 84 1012.9
20260508010147 76 36 1.7 5.2 0.00 0.00 0.02 84 1013.2
20260508005646 76 343 1.7 3.5 0.00 0.00 0.02 84 1013.2
20260508005147 76 28 3.5 6.1 0.00 0.00 0.02 85 1012.9
20260508004646 76 21 6.1 6.1 0.00 0.00 0.02 85 1013.2
20260508004146 76 20 2.6 6.1 0.00 0.00 0.02 85 1012.9
20260508003650 76 42 2.6 5.2 0.00 0.00 0.02 86 1012.9
20260508003146 76 35 3.5 5.2 0.00 0.00 0.02 85 1012.9
20260508002647 76 17 3.5 6.1 0.00 0.00 0.02 85 1012.9
20260508002146 76 350 1.7 4.3 0.00 0.00 0.02 85 1012.9
20260508001647 76 35 1.7 2.6 0.00 0.00 0.02 85 1012.9
20260508001146 76 46 1.7 4.3 0.00 0.00 0.02 84 1012.9
20260508000646 76 50 3.5 4.3 0.00 0.00 0.02 84 1012.9
20260508000147 76 29 2.6 5.2 0.00 0.00 0.02 83 1012.9
20260507235647 76 8 2.6 3.5 0.00 0.00 0.02 84 1012.5
20260507235146 76 354 0.0 3.5 0.00 0.00 0.02 84 1012.9
20260507234647 76 7 1.7 4.3 0.00 0.00 0.02 83 1012.9
20260507234146 76 48 2.6 6.1 0.00 0.00 0.02 83 1012.9
20260507233647 77 322 3.5 4.3 0.00 0.00 0.02 82 1012.9
20260507233148 76 338 2.6 5.2 0.00 0.00 0.02 83 1012.9
20260507232648 76 1 3.5 4.3 0.00 0.00 0.02 82 1012.9
20260507232147 77 357 1.7 6.1 0.00 0.00 0.02 82 1012.9
20260507231647 77 33 3.5 5.2 0.00 0.00 0.02 81 1012.9
20260507231147 77 338 3.5 5.2 0.00 0.00 0.02 81 1012.9
20260507230647 77 353 2.6 4.3 0.00 0.00 0.02 81 1012.9
20260507230147 77 3 2.6 5.2 0.00 0.00 0.02 81 1012.9
20260507225647 77 308 1.7 4.3 0.00 0.00 0.02 80 1012.9
20260507225147 77 331 5.2 6.1 0.00 0.00 0.02 80 1012.9
20260507224646 77 336 5.2 6.1 0.00 0.00 0.02 80 1012.9
20260507224146 78 305 1.7 5.2 0.00 0.00 0.02 79 1012.9
20260507223646 78 1 1.7 4.3 0.00 0.00 0.02 79 1012.9
20260507223147 78 36 3.5 6.1 0.00 0.00 0.02 78 1012.5
20260507222646 78 11 3.5 5.2 0.00 0.00 0.02 79 1012.5
20260507222146 77 14 1.7 5.2 0.00 0.00 0.02 80 1012.5
20260507221647 78 330 1.7 3.5 0.00 0.00 0.02 79 1012.5
20260507221146 77 352 1.7 2.6 0.00 0.00 0.02 80 1012.5
20260507220646 77 12 3.5 4.3 0.00 0.00 0.02 81 1012.9
20260507220147 77 307 3.5 5.2 0.00 0.00 0.02 80 1012.5
20260507215646 77 355 1.7 5.2 0.00 0.00 0.02 79 1012.5
20260507215148 77 354 2.6 4.3 0.00 0.00 0.02 80 1012.5
20260507214646 76 17 0.0 3.5 0.00 0.00 0.02 82 1012.2
20260507214147 75 312 0.9 4.3 0.00 0.00 0.02 82 1012.5
20260507213646 75 269 0.0 2.6 0.00 0.00 0.02 82 1012.9
20260507213147 76 340 1.7 4.3 0.00 0.00 0.02 82 1012.9
20260507212647 75 9 2.6 3.5 0.00 0.00 0.02 83 1012.2
20260507212150 75 32 0.0 3.5 0.00 0.00 0.02 83 1012.5
20260507211647 75 49 1.7 2.6 0.00 0.00 0.02 83 1012.9
20260507211146 75 332 0.9 2.6 0.00 0.00 0.02 83 1012.9
20260507210646 75 14 2.6 2.6 0.00 0.00 0.02 84 1012.5
20260507210147 74 38 2.6 3.5 0.00 0.00 0.02 84 1012.5
20260507205646 74 47 1.7 4.3 0.00 0.00 0.02 84 1012.5
20260507205147 74 62 0.9 2.6 0.00 0.00 0.02 85 1012.9
20260507204647 74 14 1.7 4.3 0.00 0.00 0.02 85 1012.9
20260507204147 73 39 1.7 6.1 0.00 0.00 0.02 86 1012.9
20260507203646 73 300 2.6 5.2 0.00 0.00 0.02 86 1012.9
20260507203146 73 40 2.6 7.0 0.00 0.00 0.02 86 1012.9
20260507202647 73 2 1.7 2.6 0.00 0.00 0.02 87 1012.9
20260507202147 73 309 2.6 4.3 0.00 0.00 0.02 87 1012.9
20260507201647 73 9 2.6 5.2 0.00 0.00 0.02 88 1012.9
20260507201146 73 343 2.6 7.0 0.00 0.00 0.02 87 1012.9
20260507200646 73 351 3.5 7.0 0.00 0.00 0.02 88 1012.9
20260507200147 73 305 2.6 5.2 0.00 0.00 0.02 88 1013.2
20260507195646 73 352 5.2 7.8 0.00 0.00 0.02 87 1012.9
20260507195146 73 39 4.3 4.3 0.00 0.00 0.02 86 1012.9
20260507194649 74 334 3.5 5.2 0.00 0.00 0.02 85 1012.9
20260507194146 74 285 2.6 4.3 0.00 0.00 0.02 86 1012.9
20260507193647 74 0 1.7 4.3 0.00 0.00 0.02 85 1012.9
20260507193147 74 57 4.3 5.2 0.00 0.00 0.02 85 1012.9
20260507192647 74 62 1.7 4.3 0.00 0.00 0.02 87 1013.2
20260507192146 73 12 1.7 6.1 0.00 0.00 0.02 87 1013.5
20260507191649 73 345 4.3 4.3 0.00 0.00 0.02 87 1013.2
20260507191146 73 338 3.5 4.3 0.00 0.00 0.02 87 1012.9
20260507190647 73 47 1.7 4.3 0.00 0.00 0.02 88 1013.5
20260507190146 73 2 2.6 5.2 0.00 0.00 0.02 88 1013.2
20260507185647 73 25 3.5 6.1 0.00 0.00 0.02 88 1013.2
20260507185147 72 331 4.3 7.0 0.00 0.00 0.02 88 1013.5
20260507184201 72 49 3.5 6.1 0.00 0.00 0.02 88 1013.5
20260507183649 72 7 3.5 5.2 0.00 0.00 0.02 88 1013.5
20260507183147 72 333 3.5 6.1 0.00 0.00 0.02 90 1013.5
20260507182649 72 32 2.6 7.8 0.00 0.00 0.02 91 1013.5
20260507182146 71 343 4.3 7.8 0.00 0.00 0.02 92 1013.5
20260507181646 71 12 2.6 6.1 0.00 0.00 0.02 93 1013.5
20260507181148 71 44 6.1 7.0 0.00 0.00 0.02 95 1013.9
20260507180648 71 357 2.6 7.8 0.00 0.00 0.02 94 1013.9
20260507180146 71 32 4.3 8.7 0.00 0.00 0.02 93 1013.9
20260507175646 71 352 0.9 6.1 0.00 0.00 0.02 93 1013.9
20260507175146 71 22 3.5 5.2 0.00 0.00 0.02 93 1013.9
20260507174647 71 357 5.2 6.1 0.00 0.00 0.02 94 1013.9
20260507174147 71 349 3.5 6.1 0.00 0.00 0.02 94 1013.9
20260507173647 70 350 3.5 6.1 0.00 0.00 0.02 95 1013.9
20260507173147 70 347 5.2 7.8 0.00 0.00 0.02 94 1013.9
20260507172647 70 27 1.7 7.8 0.00 0.00 0.02 95 1013.9
20260507172146 70 329 5.2 7.0 0.00 0.00 0.02 95 1013.9
20260507171647 70 12 5.2 8.7 0.00 0.00 0.02 95 1014.2
20260507171147 70 334 3.5 7.8 0.00 0.00 0.02 95 1014.2
20260507170647 70 354 5.2 7.0 0.00 0.00 0.02 95 1014.2
20260507170146 71 3 4.3 8.7 0.00 0.00 0.02 95 1014.2
20260507165646 71 354 6.1 7.8 0.00 0.00 0.02 94 1014.2
20260507165147 71 349 2.6 6.1 0.00 0.00 0.02 94 1014.2
20260507164647 71 323 4.3 7.0 0.00 0.00 0.02 94 1014.2
20260507164147 71 0 4.3 6.1 0.00 0.00 0.02 95 1014.2
20260507163647 71 328 2.6 6.1 0.00 0.00 0.02 95 1014.2
20260507163146 71 349 4.3 8.7 0.00 0.00 0.02 96 1014.2
20260507162646 71 336 1.7 5.2 0.00 0.00 0.02 96 1014.2
20260507162147 71 23 3.5 6.1 0.00 0.00 0.02 97 1014.2
20260507161646 71 347 2.6 5.2 0.00 0.00 0.02 97 1014.2
20260507161146 71 15 3.5 7.8 0.00 0.00 0.02 97 1013.9
20260507160646 71 42 2.6 5.2 0.00 0.00 0.02 98 1014.2
20260507160147 71 338 2.6 4.3 0.00 0.00 0.02 98 1014.2
20260507155646 70 29 1.7 6.1 0.00 0.00 0.02 98 1014.2
20260507155147 70 40 1.7 7.8 0.00 0.00 0.02 98 1014.2
20260507154646 71 5 2.6 9.6 0.00 0.00 0.02 99 1014.2
20260507154146 71 21 2.6 4.3 0.00 0.00 0.02 99 1014.2
20260507153647 71 312 5.2 6.1 0.00 0.00 0.02 99 1014.2
20260507153148 71 314 4.3 7.0 0.00 0.00 0.02 99 1014.2
20260507152648 71 355 2.6 7.0 0.00 0.00 0.02 99 1013.9
20260507152146 70 3 5.2 6.1 0.00 0.00 0.02 99 1014.2
20260507151646 71 1 5.2 7.8 0.00 0.00 0.02 99 1013.9
20260507151147 71 338 4.3 8.7 0.00 0.00 0.02 99 1014.2